GFSFLT2_sfc_temp_150.txt.gz
Temp
54 53 51 50 51 51 51 50 51 49 48 48 48 49 49 49 50 49 50 50 51 51 51 52 52 53 54
50 50 47 49 50 50 51 51 50 50 48 47 47 48 48 49 48 48 48 49 50 48 49 50 51 51 52
45 49 49 49 46 47 47 48 49 47 47 46 47 48 48 48 48 47 48 48 47 47 47 48 49 49 51
43 44 46 48 46 43 43 47 46 49 47 47 47 47 47 46 46 47 45 45 46 46 46 46 47 48 49
41 42 43 43 41 43 42 44 47 47 46 47 47 47 47 46 46 46 45 44 44 45 45 46 46 47 48
41 41 43 44 46 43 42 40 38 49 44 44 47 45 47 47 46 46 44 44 44 44 45 45 46 46 46
43 44 44 45 45 43 40 40 41 46 42 40 46 44 46 47 45 44 43 43 44 44 44 45 45 45 46
44 45 46 46 46 44 42 41 42 45 45 35 44 42 46 47 45 44 43 43 43 43 44 44 44 44 45
46 46 45 46 45 43 35 34 34 39 44 38 41 40 42 43 45 44 43 42 42 42 43 43 43 44 44
44 44 45 43 44 40 38 33 35 35 43 38 37 37 34 43 42 43 42 40 40 41 42 42 42 42 42
41 41 43 43 41 40 38 37 34 35 43 38 35 36 34 34 39 40 42 42 42 41 40 40 40 40 39
38 37 39 37 36 37 38 38 41 39 43 39 33 35 32 32 31 38 39 40 40 38 39 40 39 39 39
34 35 38 40 38 36 38 40 40 41 40 36 34 34 34 32 31 33 33 36 38 37 37 36 36 36 34
35 36 34 32 33 36 35 34 32 32 34 35 34 33 32 32 32 31 33 29 35 35 35 35 36 37 36
34 33 33 32 32 34 34 33 31 32 32 32 33 34 33 32 30 31 30 32 34 33 32 31 33 35 36
33 33 33 32 32 32 33 32 32 32 32 32 31 29 29 30 33 29 30 30 32 33 32 29 28 33 36
33 33 33 32 32 32 32 32 31 32 32 31 30 28 25 23 32 35 28 29 30 29 31 30 29 32 35

GFSFLT2_sfc_temp_153.txt.gz
Temp
51 53 50 49 50 50 49 48 48 51 51 50 49 50 50 50 50 51 51 51 51 53 53 53 53 53 53
46 47 48 49 48 47 50 52 49 51 51 51 50 49 49 49 49 50 50 49 50 51 52 50 51 52 52
43 46 47 48 45 46 46 46 49 49 50 50 50 49 49 49 49 49 49 48 49 49 49 49 49 50 51
43 43 44 46 45 42 41 43 43 48 49 49 49 48 49 48 48 48 48 47 48 47 48 47 47 47 48
41 42 42 42 41 43 41 41 42 44 43 43 43 43 43 46 46 46 46 47 46 46 46 47 46 47 47
42 41 42 43 44 42 40 38 36 44 42 41 43 42 42 43 47 47 46 47 46 45 45 46 46 46 47
42 43 43 45 45 42 41 39 39 42 41 37 41 40 42 46 48 47 47 46 45 45 45 45 45 46 47
44 44 46 47 46 45 43 41 41 42 42 33 39 38 40 40 47 47 46 45 45 44 44 45 45 45 45
47 47 47 47 47 43 38 36 35 36 40 38 36 36 39 37 40 47 46 45 44 44 44 44 44 45 43
44 45 46 45 46 43 39 34 33 33 37 35 34 34 30 35 38 37 35 41 42 42 42 43 43 39 37
41 42 43 41 42 41 40 37 34 33 39 38 33 33 32 29 32 34 34 35 35 37 42 41 43 41 33
38 38 38 38 39 39 39 38 40 37 38 37 31 33 31 29 27 32 33 34 33 32 33 39 41 41 41
35 36 37 38 38 36 35 35 35 36 37 36 34 34 34 31 30 31 32 32 32 30 30 32 35 35 30
35 37 37 36 34 33 33 32 32 32 35 36 35 34 32 32 31 30 32 29 30 30 30 31 33 34 32
35 34 34 34 33 33 32 32 30 30 31 32 33 33 33 32 29 30 30 30 31 30 29 28 31 33 32
33 33 33 32 32 32 32 32 30 30 31 31 30 29 29 29 34 29 29 29 30 28 29 28 28 32 33
33 33 32 32 32 32 31 31 30 31 32 32 29 27 24 21 27 36 28 28 27 27 29 28 26 28 31

GFSFLT2_sfc_temp_156.txt.gz
Temp
44 47 43 43 46 44 45 45 44 51 52 53 52 51 51 51 51 52 52 52 53 53 53 54 55 54 55
43 42 42 45 43 41 46 49 45 48 51 52 52 52 51 51 51 51 51 51 51 51 51 53 54 52 53
40 43 43 39 41 41 41 43 46 48 51 52 52 52 52 51 50 50 50 50 50 49 50 51 52 51 51
40 41 41 41 41 41 39 40 41 47 49 49 49 50 51 51 50 49 49 49 49 49 49 49 49 49 49
39 40 40 39 37 41 40 42 40 41 40 42 43 44 44 48 47 48 48 48 48 48 49 48 48 48 48
38 38 41 43 44 42 41 40 36 39 39 39 41 39 42 42 45 47 47 47 47 47 48 47 47 47 47
40 41 40 41 42 42 41 40 40 43 40 37 37 38 40 44 46 47 48 47 47 47 47 47 46 46 47
41 42 44 45 43 43 42 42 41 43 43 35 34 37 36 39 47 48 48 47 47 47 46 46 46 46 46
46 46 46 46 46 44 39 36 33 34 39 38 35 35 33 34 37 47 47 47 47 46 46 45 45 45 44
41 42 44 43 45 42 41 36 34 33 37 35 36 33 30 31 34 35 38 46 46 46 45 44 45 41 38
39 39 39 40 40 42 41 39 35 34 39 37 34 32 31 27 29 33 33 34 34 35 43 43 43 42 36
34 34 34 36 37 38 39 39 40 37 39 38 32 33 31 26 28 29 31 32 31 30 31 38 42 42 43
32 33 34 36 37 37 38 38 38 37 37 36 34 33 32 30 26 27 29 29 30 30 29 30 30 30 29
33 35 36 35 35 36 34 35 33 33 32 32 32 33 32 31 31 23 29 27 29 30 29 29 29 31 30
32 32 33 34 33 34 33 33 31 31 30 31 32 33 34 33 30 31 29 29 31 30 29 28 26 30 30
32 32 31 31 32 33 33 32 30 30 30 31 31 30 30 31 34 29 29 30 30 30 30 26 26 29 31
32 31 31 32 32 32 32 31 30 30 31 31 30 29 24 22 23 36 30 28 28 28 28 28 27 30 30

GFSFLT2_sfc_temp_159.txt.gz
Temp
45 46 40 41 45 43 44 44 45 52 54 54 54 54 53 53 53 53 53 54 54 55 55 55 55 56 56
43 41 38 41 41 42 46 48 46 49 52 53 53 53 53 53 52 52 52 52 52 53 54 54 54 55 55
39 42 41 38 39 39 40 42 46 49 51 52 53 53 53 53 52 52 51 51 51 51 51 52 52 53 54
37 38 38 40 35 38 38 39 39 45 48 49 50 51 52 53 52 51 50 50 50 51 50 50 50 51 52
36 37 39 38 35 40 39 40 41 39 41 41 43 45 46 50 49 49 50 50 50 50 50 50 49 50 50
39 39 40 41 42 40 39 37 36 44 37 38 40 39 41 44 47 49 48 49 49 49 49 49 49 49 48
36 36 36 38 39 37 37 36 37 42 39 37 37 36 40 43 46 47 48 48 48 48 48 48 48 48 47
40 41 42 43 42 41 40 40 41 42 43 35 40 36 39 40 45 47 47 48 48 47 47 47 48 47 47
44 44 44 45 44 41 36 35 33 37 41 36 37 37 39 37 39 46 47 46 48 48 47 47 47 46 45
40 41 43 41 43 41 38 33 33 32 38 35 35 34 33 34 37 39 41 44 47 47 47 46 46 42 40
37 37 35 35 36 37 38 36 33 33 39 37 34 34 33 30 29 36 37 36 40 42 46 45 45 43 37
33 32 32 33 34 35 36 37 38 36 39 38 34 33 33 31 29 29 31 32 34 33 34 40 44 44 44
32 32 32 33 35 35 36 36 36 37 38 37 36 35 33 32 29 28 28 29 30 31 31 31 33 32 29
32 33 33 32 32 33 33 33 32 33 36 35 34 34 32 32 31 29 30 28 29 30 32 31 31 32 30
30 30 31 32 32 33 32 32 30 31 32 32 32 32 32 32 30 30 29 29 29 30 31 29 29 30 30
30 31 30 30 30 31 32 31 30 31 31 31 30 30 30 31 34 30 30 30 30 30 31 28 27 28 31
30 31 31 31 31 29 30 31 30 31 31 29 30 29 26 24 27 34 29 28 29 29 29 28 27 29 30

GFSFLT2_sfc_temp_165.txt.gz
Temp
39 43 41 41 42 40 40 39 40 48 50 51 52 52 53 53 54 55 55 56 56 56 57 57 58 58 59
36 36 36 40 40 36 41 44 41 46 49 50 50 51 52 52 52 53 53 54 54 55 55 56 56 57 58
35 35 35 35 36 36 37 37 41 45 48 49 50 50 51 51 51 52 52 52 53 53 53 53 54 55 56
34 34 32 34 33 34 34 34 36 42 45 46 48 48 49 49 50 50 49 50 51 52 52 52 52 52 53
33 34 34 36 37 39 38 39 40 39 39 38 39 40 40 44 45 46 47 48 49 50 51 52 51 51 52
36 35 37 38 39 37 36 34 31 39 39 39 41 40 43 41 45 46 47 47 48 48 49 50 50 50 51
33 33 32 34 37 35 34 33 33 37 36 34 38 37 41 43 47 47 47 47 47 47 47 48 49 49 49
36 37 37 40 40 39 35 35 35 35 34 30 36 34 38 39 45 46 46 46 46 46 47 47 47 48 48
43 43 43 43 42 38 33 31 29 31 33 33 34 33 34 35 38 44 45 46 46 46 46 47 46 47 46
38 39 40 38 41 36 33 29 28 28 32 31 31 32 30 34 35 35 36 42 44 44 45 45 46 44 42
34 33 31 31 32 32 32 31 29 28 34 34 30 31 31 30 34 35 33 36 36 37 42 44 45 45 40
30 29 29 30 31 30 30 31 33 32 34 34 31 30 29 28 29 35 36 35 35 34 36 39 40 43 43
29 30 30 30 30 31 33 34 34 34 35 34 32 32 31 30 29 31 33 31 33 33 34 33 34 35 36
29 30 30 30 31 32 30 31 31 31 35 34 33 32 30 31 31 31 33 30 29 31 32 32 32 33 32
29 29 30 31 30 32 31 30 28 28 28 32 34 33 33 32 29 30 31 30 28 30 30 29 30 32 32
29 29 28 28 29 30 30 30 28 28 28 30 30 31 29 31 34 30 29 27 30 30 29 28 27 29 31
28 28 29 29 29 27 28 28 27 27 28 30 30 29 18 20 25 34 29 29 28 28 29 28 26 29 30

GFSFLT2_sfc_temp_171.txt.gz
Temp
45 46 45 45 47 48 48 48 48 47 47 48 49 50 50 51 51 52 52 53 54 55 56 57 58 58 59
42 42 42 44 44 43 45 47 47 47 47 48 48 48 49 49 50 50 51 51 51 52 53 54 54 56 57
38 41 41 42 42 43 43 45 46 45 47 47 48 48 48 48 49 49 49 49 49 50 50 51 51 53 55
38 37 39 41 42 39 40 43 43 46 47 47 47 47 47 47 47 47 46 47 48 48 49 49 49 50 51
36 38 38 39 38 40 38 40 42 44 43 44 44 45 46 46 45 45 45 46 47 47 48 48 49 49 50
38 37 37 38 38 37 36 34 32 42 36 37 42 42 43 44 44 44 44 45 46 47 47 47 47 47 48
36 36 36 38 38 36 35 33 33 38 38 35 40 39 43 44 43 43 44 44 45 45 46 46 47 48 47
40 40 40 40 40 39 37 37 38 39 39 31 38 37 41 42 42 42 43 43 44 45 45 45 46 46 46
42 42 41 41 41 39 34 32 31 33 37 35 36 36 38 39 42 42 43 43 43 43 44 44 44 45 46
37 38 38 38 38 37 35 30 30 29 37 31 33 34 31 39 41 41 41 41 41 42 42 43 44 42 41
34 34 35 36 36 37 36 32 28 28 36 33 31 32 31 31 37 39 40 40 40 40 41 41 41 41 38
31 33 33 33 34 35 35 35 35 32 34 34 30 31 30 30 30 37 39 39 39 37 38 40 40 40 40
31 31 32 33 33 33 35 35 35 35 36 35 33 32 32 30 30 32 33 35 38 37 37 36 35 35 33
31 32 33 31 31 33 32 32 31 32 35 35 34 33 30 31 31 30 33 30 36 36 35 35 36 36 34
30 30 31 30 30 32 31 30 28 28 29 33 34 33 32 31 29 32 32 32 34 34 33 33 35 35 35
28 28 27 27 27 29 29 28 25 27 29 31 31 29 32 33 36 32 32 32 32 33 33 31 32 35 36
26 26 26 26 26 26 26 27 26 28 29 30 29 27 25 24 33 35 31 32 31 31 33 32 31 33 34

GFSFLT2_sfc_temp_174.txt.gz
Temp
50 52 50 49 49 50 50 50 51 50 50 49 49 49 49 49 50 50 51 52 53 54 55 55 56 58 58
46 46 46 47 46 45 48 50 50 50 49 48 48 49 49 49 49 49 49 50 50 50 50 51 53 54 56
42 45 43 45 45 47 47 48 50 48 49 49 49 48 48 48 48 48 48 48 48 48 48 49 50 51 52
38 40 44 46 46 44 43 46 45 49 49 48 47 47 47 48 47 47 46 46 47 47 47 48 48 49 50
39 41 42 42 41 42 39 41 43 44 43 45 45 47 47 47 47 46 46 45 45 46 47 47 47 48 49
40 39 40 42 42 39 38 35 32 45 41 41 45 43 45 46 46 45 44 44 45 45 46 46 47 47 48
39 40 40 41 40 37 37 36 37 42 40 37 42 41 45 46 45 44 44 44 44 44 45 45 45 46 47
42 42 42 42 41 40 38 38 40 41 42 33 40 39 43 44 44 44 44 44 44 44 44 44 44 45 43
42 42 41 41 40 38 34 32 32 36 39 36 37 37 39 41 45 44 44 43 44 43 43 43 44 44 44
41 41 41 40 40 39 35 30 31 30 38 32 34 35 31 40 41 43 44 44 43 43 43 43 42 41 40
38 37 39 39 39 38 36 33 30 31 38 35 32 33 33 32 38 41 43 43 42 41 42 42 42 41 37
34 34 35 34 36 35 36 36 37 35 38 36 31 31 30 30 31 39 40 41 39 38 40 41 41 41 41
32 32 34 35 36 35 36 37 37 38 39 38 34 33 32 30 30 33 33 35 38 37 38 38 37 36 33
31 33 35 34 33 34 32 33 32 33 37 37 35 34 31 32 32 30 34 30 35 35 36 36 37 37 35
31 30 30 31 30 32 31 31 28 29 30 34 35 35 34 32 29 32 33 34 34 33 32 33 36 36 36
29 29 28 28 28 29 30 28 26 28 29 32 32 31 32 34 37 33 34 34 35 34 32 30 32 37 38
28 28 28 27 27 27 28 28 27 29 30 32 31 28 26 25 34 39 32 33 33 32 32 31 29 32 36

GFSFLT2_sfc_temp_177.txt.gz
Temp
47 49 47 47 47 47 47 46 48 51 51 51 50 50 50 50 50 50 51 51 52 52 53 54 53 54 54
43 44 43 44 44 44 47 50 48 50 50 50 50 50 50 49 49 49 49 49 50 50 50 51 51 51 52
39 42 42 44 43 44 45 45 48 48 49 49 49 49 48 48 49 48 48 48 48 48 48 48 49 50 51
39 39 41 43 43 40 39 41 41 46 47 47 48 47 47 48 47 47 47 47 46 47 47 47 47 48 49
37 38 39 39 38 40 37 38 40 41 40 42 42 42 43 45 45 46 46 46 46 46 46 46 46 47 48
37 36 38 38 39 37 35 33 30 41 38 37 41 39 41 42 45 46 46 46 46 46 45 45 45 46 46
37 37 36 38 38 34 33 32 31 37 37 33 38 36 40 43 44 44 45 45 45 45 45 45 45 45 45
40 39 40 40 39 37 35 34 35 37 38 29 36 34 38 39 43 44 45 45 45 45 45 45 44 44 44
43 43 43 42 41 37 32 29 28 31 36 33 33 32 35 36 40 44 44 44 44 45 45 44 43 43 41
39 39 40 39 41 38 33 27 27 26 33 30 31 31 28 34 35 37 38 43 44 43 44 43 43 40 38
36 35 35 36 36 36 35 32 28 27 34 33 29 29 30 29 31 35 36 37 37 38 41 41 43 42 37
33 32 32 32 32 33 34 34 34 32 35 34 30 29 28 28 27 32 34 35 34 35 35 39 40 41 41
30 30 31 32 32 32 33 33 33 33 36 34 32 31 30 27 27 28 30 31 34 33 34 34 34 35 33
30 31 32 30 30 31 29 30 29 29 32 32 32 32 29 30 30 28 31 27 32 33 33 33 35 35 35
29 29 29 29 29 30 29 28 26 26 27 30 31 31 31 29 27 28 29 31 32 33 32 30 33 34 35
28 28 27 27 27 28 28 26 25 26 26 28 30 28 28 28 36 30 31 31 31 31 31 29 29 33 34
26 26 27 26 26 26 26 26 25 25 26 29 28 26 23 21 27 37 28 28 28 28 30 30 28 30 32

GFSFLT2_sfc_temp_180.txt.gz
Temp
39 40 38 38 41 41 42 40 41 49 50 50 50 50 50 50 50 50 50 51 51 51 51 52 52 52 53
35 35 36 37 38 37 42 46 40 47 48 49 49 49 49 49 49 49 49 49 49 49 50 50 50 50 52
32 34 34 36 35 37 38 37 44 46 47 47 47 48 48 48 48 48 47 47 48 48 48 48 49 49 50
31 32 33 36 34 33 34 35 37 42 43 44 45 46 46 46 46 45 46 46 47 47 47 47 46 47 48
30 31 32 33 32 33 32 33 35 36 35 36 38 38 39 43 43 44 45 46 46 46 46 46 46 46 47
32 30 30 32 32 33 31 28 27 34 32 33 36 34 36 37 43 44 44 45 46 46 46 45 46 46 46
31 30 31 32 34 32 30 28 28 33 33 30 31 31 35 40 42 43 44 45 45 45 45 45 45 45 45
34 33 35 38 38 36 32 31 32 33 32 26 32 30 34 35 41 42 44 44 44 44 45 44 44 44 44
41 41 42 41 40 36 29 27 26 28 31 27 29 29 29 32 35 41 42 42 42 43 43 44 43 43 41
34 34 36 35 40 35 32 27 26 26 28 27 28 27 26 29 32 34 31 39 41 41 42 42 42 39 37
29 29 31 32 30 30 31 30 27 26 32 32 28 29 28 28 29 31 32 32 33 34 39 40 42 40 35
29 29 27 27 27 28 29 29 32 30 31 31 28 28 26 25 25 29 31 31 29 31 34 38 40 40 40
28 27 27 28 28 28 29 29 29 29 33 30 29 28 27 26 26 28 29 30 31 27 30 32 33 34 32
27 28 29 28 27 28 28 28 25 26 30 29 29 29 26 28 28 28 30 26 30 30 30 29 29 34 34
27 27 28 27 26 28 28 27 24 24 25 27 28 29 28 28 26 27 27 28 30 29 29 28 30 30 30
27 26 24 23 25 26 27 25 23 23 23 24 26 25 25 24 33 27 26 24 28 28 28 27 28 29 29
26 24 24 24 24 23 25 25 23 22 23 22 24 23 19 18 26 35 25 26 27 27 28 27 25 28 30

GFSFLT2_sfc_temp_183.txt.gz
Temp
37 38 37 36 39 38 40 38 38 47 49 49 49 49 49 49 50 50 50 50 50 51 51 52 51 51 51
33 34 34 35 35 34 40 44 37 45 46 46 47 47 47 48 48 48 48 48 48 49 49 50 51 51 51
31 32 32 33 33 34 35 34 40 43 44 44 45 45 45 46 46 46 46 46 46 47 48 48 48 49 49
30 30 31 33 31 30 31 32 33 39 40 41 42 43 43 44 44 43 44 45 46 47 47 47 46 47 48
29 29 29 29 29 30 29 31 32 32 31 34 35 35 36 40 41 42 44 45 45 45 45 46 47 47 47
29 28 28 28 28 28 30 30 27 31 31 31 34 32 34 35 41 43 43 44 44 45 45 46 46 46 46
29 28 27 30 30 29 28 25 27 31 30 27 31 29 33 37 40 41 42 44 44 44 44 45 45 45 45
31 31 32 33 33 32 29 29 29 31 30 24 28 28 32 33 38 40 42 42 43 42 43 44 44 43 44
40 40 40 40 39 32 27 26 25 28 29 27 27 28 30 31 31 39 40 40 41 41 42 42 42 43 38
31 31 33 32 37 30 28 25 25 24 28 26 28 28 24 27 30 30 30 36 39 39 40 40 41 38 36
28 28 28 28 29 29 28 27 25 24 30 29 25 27 27 26 27 30 30 30 31 32 36 38 40 40 35
27 26 26 27 27 27 28 28 28 28 30 28 25 26 24 23 24 28 30 31 30 28 30 34 37 39 40
27 26 27 27 28 26 28 28 28 28 31 29 26 26 25 23 24 27 28 31 30 24 29 29 29 31 30
27 29 29 25 25 26 25 27 24 25 28 29 28 26 23 25 26 26 28 25 29 28 28 29 30 30 29
28 27 28 26 25 26 26 26 22 21 22 25 26 26 26 24 23 24 24 25 27 26 27 26 29 29 29
27 25 25 22 22 25 23 23 22 22 21 22 22 21 21 21 31 22 24 21 26 26 27 25 26 29 29
26 22 21 23 24 20 21 23 22 21 21 22 12 12 16 15 22 33 22 23 24 23 24 24 23 26 28

GFSFLT2_sfc_temp_189.txt.gz
Temp
33 33 33 33 35 34 36 35 35 43 45 46 46 45 46 46 46 47 48 48 48 49 50 50 50 50 50
29 30 31 32 32 31 36 40 34 41 44 44 44 44 44 44 45 45 46 45 46 47 48 49 49 49 50
29 29 29 30 30 30 31 31 37 41 41 42 42 43 43 43 43 43 43 43 44 46 47 46 47 48 49
29 29 28 30 28 29 30 30 32 36 37 39 41 41 41 41 41 40 41 43 44 45 46 46 46 47 48
28 28 28 28 27 28 27 29 30 29 29 31 31 30 31 36 37 38 41 42 43 44 44 45 45 45 46
27 26 26 26 26 27 27 26 26 29 28 29 30 29 30 31 38 40 41 42 43 43 44 44 44 44 44
27 26 26 27 31 28 26 26 25 29 28 26 28 27 30 34 37 39 41 42 42 42 42 43 43 43 43
30 29 28 30 30 29 29 26 27 29 28 21 25 26 30 31 37 38 40 41 41 40 41 41 41 41 42
38 39 38 38 36 29 24 22 23 25 27 24 26 26 28 28 29 37 40 39 39 39 40 40 40 40 37
30 31 31 30 35 28 25 22 23 20 26 23 25 24 21 26 28 31 30 35 37 37 37 38 39 36 32
27 27 27 27 27 27 26 24 22 22 28 28 23 24 23 23 25 28 28 28 30 31 34 35 37 37 31
26 25 25 25 25 26 26 26 27 26 28 27 24 24 22 20 22 26 27 29 29 28 28 32 34 35 35
25 25 26 25 27 26 27 27 26 27 30 28 25 23 21 21 21 23 24 25 27 23 27 26 27 28 25
24 26 27 23 24 25 22 24 22 23 28 27 26 25 22 21 22 21 23 20 24 25 25 26 27 27 26
24 24 26 26 26 25 22 21 17 17 19 24 25 25 23 21 20 21 21 21 24 24 24 23 25 26 27
21 20 22 23 23 22 17 14 16 18 18 19 19 18 19 18 27 21 22 22 24 24 24 21 22 26 27
16 15 16 20 22 18 18 17 17 18 18 19 16 14 14 12 19 32 22 24 23 22 22 22 21 24 27

GFSFLT2_sfc_temp_192.txt.gz
Temp
35 34 34 33 34 34 35 34 33 42 45 46 45 46 45 45 46 46 47 47 48 48 49 50 50 51 51
32 32 32 30 30 30 35 38 32 40 44 43 44 44 44 44 44 44 45 44 45 46 47 48 49 49 50
30 30 29 29 29 29 30 29 35 40 40 41 42 43 43 42 43 43 42 42 43 45 46 47 47 48 49
29 29 28 29 28 27 28 29 30 35 36 38 40 40 39 40 40 40 40 42 43 44 45 45 46 45 47
28 28 27 27 26 28 27 28 29 28 28 31 29 31 30 35 36 37 40 42 43 43 44 44 44 45 46
26 26 26 26 25 26 26 25 24 28 28 29 30 28 29 30 37 39 40 42 43 43 43 43 44 44 44
28 26 26 26 27 26 25 23 25 29 27 24 27 26 30 33 36 39 40 41 42 42 41 42 42 42 42
30 29 28 28 29 28 26 25 27 29 27 20 24 25 30 30 36 38 40 40 40 40 40 41 41 41 41
38 38 38 38 35 28 23 22 23 25 27 25 24 26 28 27 29 36 38 37 37 38 38 39 39 39 36
30 30 31 29 35 28 25 22 23 22 26 23 25 23 20 25 27 30 29 34 36 36 36 37 37 35 33
27 26 27 27 27 27 26 24 22 23 28 27 24 24 22 22 25 28 28 27 29 30 33 34 36 36 30
26 25 25 25 25 26 26 26 26 26 28 26 23 23 21 20 20 26 27 27 27 26 27 30 33 34 34
24 24 25 25 27 26 27 27 26 26 30 27 23 23 23 21 20 21 24 25 25 24 25 25 25 27 25
23 26 26 23 24 26 24 24 21 22 27 26 25 23 20 21 21 20 22 20 24 24 24 25 26 27 26
23 23 25 25 24 26 22 18 18 18 18 22 23 24 22 21 19 20 20 21 23 23 23 23 25 26 26
20 21 21 19 20 21 16 12 15 16 17 18 18 15 14 17 26 19 20 21 24 25 25 21 22 25 27
15 15 17 13 20 16 17 16 15 16 16 17 8 12 13 11 18 30 21 23 23 22 23 22 20 23 26

GFSFLT2_sfc_temp_195.txt.gz
Temp
40 41 41 41 41 40 41 42 42 42 44 46 45 46 46 46 46 46 46 47 47 47 48 49 50 51 52
39 39 40 40 38 38 40 42 41 41 43 43 44 44 44 44 44 44 45 44 44 45 46 48 49 49 50
36 38 38 36 37 38 38 39 40 40 40 41 42 43 42 42 43 43 42 42 43 44 46 46 46 47 48
36 35 35 37 37 35 36 39 38 40 39 40 40 40 40 40 41 40 39 41 43 44 44 45 44 45 46
33 34 35 35 34 35 34 36 38 38 37 39 39 39 39 39 38 38 40 41 43 44 44 43 44 44 45
33 34 33 34 34 34 33 31 30 37 34 35 38 37 38 39 39 39 40 42 42 43 41 42 43 43 43
35 34 33 34 34 33 32 31 31 34 33 31 37 35 39 39 38 38 40 41 41 40 41 41 42 42 42
37 35 36 36 35 34 32 31 33 35 35 28 34 33 36 37 38 37 39 39 39 39 39 39 39 40 40
38 38 38 37 37 34 30 27 27 31 35 30 32 31 34 35 38 36 38 37 37 38 38 38 38 39 38
35 35 34 34 35 34 31 26 26 25 33 27 29 29 26 34 35 36 36 36 36 36 36 36 37 37 37
33 33 33 33 34 34 33 30 26 25 32 30 27 27 25 26 31 34 34 34 34 35 35 35 35 36 34
32 31 31 31 32 32 32 32 32 30 32 31 25 25 23 22 23 31 32 33 33 32 33 33 34 35 35
30 29 30 31 31 31 31 31 31 31 32 31 28 27 25 22 22 24 27 30 31 30 31 31 31 32 30
30 31 32 30 29 30 27 28 26 26 30 30 29 27 23 24 24 22 26 23 29 30 30 30 31 32 32
29 28 28 28 27 28 27 25 22 22 23 26 28 27 26 24 20 24 26 26 29 29 28 27 30 32 32
28 27 25 24 24 25 25 23 20 21 22 24 23 22 24 26 29 23 25 26 28 29 29 25 25 30 33
25 24 23 23 23 22 22 21 20 21 22 23 21 19 17 16 26 31 25 26 26 26 27 27 25 28 31